Weather in Kayly

Russia / Omsk Oblast     57°17′25″N   70°41′25″E
temp.,
°C
wind,
m/s
gust,
m/s
humid.,
%
clouds,
%
prec.,
mm/h
press.,
hPa
HPBL,
m
25 may, wed
wed2500:00+15sse477210 0.0 1014102
03:00+13ese007576 0.0 101510
06:00+14se23709 0.0 101542
09:00+20s365372 0.0 1015264
12:00+25s4642100 0.0 1016705
15:00+27s4634100 0.0 10152066
18:00+26se474436 0.0 1015745
21:00+20ese3465100 0.0 101556
26 may, thu
thu2600:00+18ese31266100 0.0 1015202
03:00+17se4136992 0.0 1014237
06:00+17se3106812 0.0 1014232
09:00+22se511531 0.0 1014561
12:00+27se69410 0.0 10131950
15:00+27se79380 0.0 10122518
18:00+27se59420 0.0 10112162
21:00+22ese411645 0.0 1009303
27 may, fri
fri2700:00+20ese6176361 0.0 1008562
03:00+20ese7185799 0.0 1006715
06:00+18ese61765100 0.0 1005703
09:00+20se71362100 0.0 10041028
12:00+22se8136089 0.2 10031726
15:00+20s7127090 1.1 10031335
18:00+15ssw6989100 1.4 1005695
21:00+11wsw61088100 0.1 1009748
28 may, sat
sat2800:00+10w51084100 0.1 1010756
03:00+10w51075100 0.0 1011739
06:00+11w41067100 0.0 1011810
09:00+13wnw611545 0.1 1012998
12:00+13nw4953100 0.1 1013659
15:00+20wnw683517 0.0 10122001
18:00+20wnw58414 0.0 10132133
21:00+13nne4670100 0.0 1015252
29 may, sun
sun2900:00+12wnw2969100 0.0 1016380
03:00+10wnw377989 0.0 1017179
06:00+10wnw398116 0.0 1018263
09:00+13nnw3769100 0.0 1018434
12:00+16nw466287 0.0 1019651
15:00+21nw345029 0.0 10181707
18:00+20nw2457100 0.0 1018231
21:00+18nnw2266100 0.0 101929